Tracking 18980 objects as of 20-Feb-2018
HD Live streaming from Space Station
objects crossing your sky now

FENGYUN 1C DEB

Track FENGYUN 1C DEB now!
10-day predictions


NORAD ID: 31009
Int'l Code: 1999-025BDB
Perigee: 860.7 km
Apogee: 952.3 km
Inclination: 99.0 °
Period: 103.0 minutes
Semi major axis: 7277 km
RCS: 0.01 m2 (small)
Launch date: May 10, 1999
Source: People's Republic of China (PRC)
Launch site: Taiyaun Space Center, China (TSC)

Note: This is SATELLITE DEBRIS
aabbcc
Your satellite tracking list
Your tracking list is empty




NASA's NSSDC Master Catalog

Two Line Element Set (TLE):
1 31009U 99025BDB 18050.60720112 +.00000393 +00000-0 +30075-3 0  9994
2 31009 099.0356 083.1133 0062965 200.1802 283.8617 13.98396522559683
Source of the keplerian elements: AFSPC